Regional Weather Roundup
Issued by NWS Wakefield, VA

Home | Current Version | Previous Version | Text Only | Print | Product List | Glossary On
Versions: 1 2 3 4 5 6 7 8 9 10 11 12 13 14 15 16 17 18 19 20 21 22 23 24 25 26 27 28 29 30 31 32 33 34 35 36 37 38 39 40 41 42 43 44 45 46 47 48
000
ASUS41 KAKQ 031610
RWRAKQ

REGIONAL WEATHER ROUNDUP
NATIONAL WEATHER SERVICE WAKEFIELD VA
1100 AM EST TUE MAR 03 2015

Note: "fair" indicates few or no clouds below 12,000 feet with no
significant weather and/or obstructions to visibility. * = Denotes
station may not report precipitation (e.g., rain,snow,etc.),
thunder or fog.

VAZ042-051-052>054-056-031700-
NORTHERN VIRGINIA

CITY           SKY/WX    TMP DP  RH WIND       PRES   REMARKS
WASH NATIONAL  CLOUDY    34  16  47 SE8       30.41F
DULLES         CLOUDY    32  14  47 S10       30.37F WCI  24
FORT BELVOIR   CLOUDY    33  16  50 SE6       30.40F
QUANTICO       CLOUDY    32  18  56 SW8       30.42F
FREDERICKSBRG* CLOUDY    35  17  49 SE6       30.42S
STAFFORD*      CLOUDY    33  14  46 S7        30.45S
WARRENTON      CLOUDY    34  22  61 S8        30.38F
CULPEPER*      CLOUDY    34  16  47 S7        30.38F
MANASSAS*      CLOUDY    34  18  51 S8        30.39F
LEESBURG*      CLOUDY    32  19  59 S9        30.37F
WINCHESTER     CLOUDY    34  12  40 SE9G17    30.30F
FRONT ROYAL*   CLOUDY    32  19  59 S9        30.29F
LURAY*         CLOUDY    36  23  60 S8        30.28F
$$

VAZ048-049-060>072-079>083-031700-
CENTRAL AND SOUTH CENTRAL VIRGINIA

CITY           SKY/WX    TMP DP  RH WIND       PRES   REMARKS
RICHMOND       CLOUDY    34  17  50 SE5       30.42F
CHESTERFIELD*  CLOUDY    34  10  37 S6        30.42F
PETERSBURG*    CLOUDY    35  19  51 E5        30.42F
HANOVER        CLOUDY    33  17  51 SE8       30.42F
TAPPAHANNOCK*  CLOUDY    34  16  48 E7        30.42F
QUINTON*       CLOUDY    34  19  54 SE6       30.41F
CHARLOTTSVILLE CLOUDY    33  17  51 S9        30.36F
GORDONSVILLE*  CLOUDY    32  16  52 S9        30.38F
ORANGE*        CLOUDY    34  19  55 SE8       30.40F
LOUISA*        CLOUDY    34  16  47 S3        30.38F
BUMPASS*       CLOUDY    32  15  49 SE3       30.40F
FARMVILLE*     CLOUDY    37  17  43 SE3       30.39F
CREWE*         CLOUDY    34  15  47 S3        30.40F
FORT PICKETT*  CLOUDY    33  18  53 SE6       30.40F
CHASE CITY*    CLOUDY    36  22  56 CALM      30.40S
CLARKSVILLE*   CLOUDY    34  21  60 E3        30.40S
SOUTH HILL*    CLOUDY    33  20  57 CALM      30.46F
LAWRENCEVILLE* CLOUDY    34  21  59 E5        30.40F
EMPORIA*       CLOUDY    32  23  69 NE3       30.42F
$$

VAZ088>098-031700-
SOUTHEAST VIRGINIA

CITY           SKY/WX    TMP DP  RH WIND       PRES   REMARKS
NORFOLK        CLOUDY    36  26  67 NE7       30.42F
VIRGINIA BEACH CLOUDY    38  27  64 E6        30.41F
NORFOLK NAVAL  CLOUDY    38  25  59 NE5       30.44F
WEST POINT*    CLOUDY    37  19  48 E7        30.44F
SALUDA*        CLOUDY    31  21  65 SE7       30.42F
NEWPORT NEWS   CLOUDY    37  21  52 E5        30.43F
LANGLEY AFB    CLOUDY    34  23  63 E3        30.42F
FORT EUSTIS    CLOUDY    35  21  55 SE6       30.41F
WILLIAMSBURG*  CLOUDY    37  23  56 SE3       30.43S
HR EXEC AP*    CLOUDY    37  25  60 E6        30.45F
FRANKLIN*      CLOUDY    35  23  61 E3        30.43R
WAKEFIELD      CLOUDY    35  20  54 CALM      30.42F
$$

VAZ020-022-025-037-045-031700-
WEST CENTRAL AND SOUTHWEST VIRGINIA

CITY           SKY/WX    TMP DP  RH WIND       PRES   REMARKS
STAUNTON*      CLOUDY    33  18  54 S15       30.31F WCI  22
WAYNESBORO*    CLOUDY    31  17  55 SE12      30.30F WCI  22
HOT SPRINGS VA FOG       24  24 100 S10G16    30.14F VSB<1/4 WCI  13
LYNCHBURG      CLOUDY    33  17  51 E6        30.36F
DANVILLE       CLOUDY    39  19  44 E8        30.37F
SOUTH BOSTON*  CLOUDY    37  20  51 SE3       30.40S
MARTINSVILLE   CLOUDY    39  25  58 SE5       30.37F
ROANOKE        CLOUDY    34  20  56 SE9       30.34F
BLACKSBURG     CLOUDY    31  27  87 E7        30.30F
DUBLIN*        CLOUDY    34  34  99 E6        30.28F FOG
MARION*        CLOUDY    38  25  60 NE12      30.23F
HILLSVILLE*    CLOUDY    32  32  99 S8        30.24F FOG
RICHLANDS*     CLOUDY    46  38  73 SE6       30.13F
WISE*          CLOUDY    45  45 100 S13       30.14F
ABINGDON*      CLOUDY    40  37  87 E6        30.18F
$$

MDZ021>025-VAZ099-100-031700-
SOUTHERN MARYLAND AND THE DELMARVA PENINSULA

CITY           SKY/WX    TMP DP  RH WIND       PRES   REMARKS
PATUXENT RIVER CLOUDY    31  20  63 SE9       30.42F
BAY BRIDGE APT   N/A     32  16  51 SE7       30.42F
LEONARDTOWN    CLOUDY    32  19  59 E7        30.42F
DOVER          MOSUNNY   29  16  57 E8        30.43F
GEORGETOWN     CLOUDY    31  18  58 E8        30.43F
EASTON         CLOUDY    32  18  55 SE9       30.45F
CAMBRIDGE      PTSUNNY   34  18  51 SE7       30.41F
SALISBURY      PTSUNNY   36  20  52 E8        30.42F
OCEAN CITY     CLOUDY    34  21  59 NE5       30.44F
WALLOPS ISLAND CLOUDY    34  22  61 E7        30.44F
ACCOMACK*      CLOUDY    34  23  64 E8        30.43F
$$

NCZ012>017-030>032-031700-
NORTH CENTRAL AND EASTERN NORTH CAROLINA

CITY           SKY/WX    TMP DP  RH WIND       PRES   REMARKS
ROANOKE RAPIDS CLOUDY    36  23  60 E5        30.39F
RALEIGH        CLOUDY    38  20  48 E5        30.37F
ELIZABETH CITY CLOUDY    40  29  64 NE9       30.41F
AHOSKIE*       CLOUDY    34  23  63 NE3       30.41F
EDENTON*       CLOUDY    40  31  69 NE6       30.41F
CURRITUCK*     CLOUDY    39  27  61 NE9       30.42F
KILL DEVIL HLS PTSUNNY   40  32  72 N9        30.38F
MANTEO         CLOUDY    43  32  65 NE10      30.39F
CAPE HATTERAS  CLOUDY    43  37  79 NE12      30.37F
TARBORO*       CLOUDY    37  24  60 NE5       30.41F
GOLDSBORO      NOT AVBL
WASHINGTON     CLOUDY    38  28  68 N6        30.40S
GREENVILLE     DRIZZLE   37  28  70 N5        30.40F
NEW BERN       CLOUDY    42  29  59 NE6       30.38F
WILMINGTON     CLOUDY    41  36  82 NE8       30.35F
$$

VAZ048-031700-
ELSEWHERE

CITY           SKY/WX    TMP DP  RH WIND       PRES   REMARKS
HARRISBURG PA  CLOUDY    28  14  55 SE8       30.35F
BALTIMORE      CLOUDY    29  14  53 E9        30.39F
ANNAPOLIS      CLOUDY    30  18  60 SE10      30.41F WCI  21
ANDREWS AFB    CLOUDY    32  16  51 S9        30.38F
PHILADELPHIA   CLOUDY    30  11  45 S5        30.42F
HENDERSON NC   CLOUDY    35  16  45 CALM      30.39S
GREENSBORO     CLOUDY    39  28  64 S6        30.34F
ROCKY MOUNT    CLOUDY    38  22  52 E6        30.39F
$$

VAZ100-031700-
MARINE

STATION/POSITION TIME  TEMP    WIND        PRES    WAVE   SWELL
                       AIR SEA DIR/SP/G            HT/PER HT/PER
                 (UTC) (F)     (DEG/KT/KT) (MB)    (FT/S) (FT/S)
BRANDYWINE LGT   1600   29 30  120/  5/  6   N/A
CAPE MAY NJ      1600   29 33   70/  5/  8   N/A
LEWES DE         1600   30 30  100/  4/  6   N/A
15NM E FENWICK I 1600   34 35              1030.4F   2/ 4
OCEAN-CITY-INLET 1600   33 32   90/  4/  6   N/A
WACHAPREAGUE VA  1600   33 34   50/  7/  9   N/A
THOMAS POINT MD  1600   30 31  150/  7/  8 1030.6F
COVE POINT MD    1600   29     180/ 10/ 11   N/A
SOLOMONS ISLAND  1600      33                N/A
BISHOPS HEAD MD  1600   32 33  120/  7/  9   N/A
CAMBRIDGE MD     1600   32 32  140/  5/  8   N/A
LEWISETTA VA     1600   31 33     CALM       N/A
RAPPAHANNOCK LGT 1600           90/  4/  5   N/A
STINGRAY PT      1600   31     150/  2/  2   N/A
YORK RVR RNG VA  1600   32     100/  1/  2   N/A
YORKTOWN VA      1600   32 34   80/  6/  7   N/A
DOMINION TERM VA 1600   33      30/  2/  6   N/A
KIPTOPEKE VA     1600      37   80/  8/ 10   N/A
CHES BAY BRIDGE  1600   33 33   50/  7/  9   N/A
CAPE HENRY VA    1600   33      70/  6/  8   N/A
CHESAPEAKE LGHT  1500   35      30/ 10/ 11 1031.5S
WILLOUBY STN VA  1600   32      60/  3/  4   N/A
S CRANEY ISL VA  1600           70/  4/  5   N/A
CAPE HENRY BUOY  1600      35                N/A     3/ 5
1ST LANDING BUOY 1600   33      80/  8/ 10 1029.6F
OFFSHORE WE BUOY 1600      36                N/A     3/ 6   3/ 6
64NM E OF VA BCH 1600   47 62   80/  4/  6 1029.7R   4/ 6   3/ 6
DUCK PIER NC     1600   36 35   10/  9/ 11   N/A
44100 DUCK FRF   1500      37                N/A     4/ 6
44056 DUCK FRF   1600      35                N/A     3/ 6
OREGON INLET NC  1600   39 39  360/ 12/ 16   N/A
HATTERAS NC      1600   42 42   30/ 10/ 13   N/A
CAPE LOOKOUT NC  1500   44      30/ 15/ 17 1028.1F
$$


USA.gov is the U.S. government's official web portal to all federal, state and local government web resources and services.